Terminal Aerodrome Forecast
Issued by NWS

Home | Current Version | Previous Version | Graphics & Text | Print | Product List | Glossary On
Versions: 1 2 3 4 5 6 7 8 9 10 11 12 13 14 15 16 17 18 19 20 21 22 23 24 25
000
FTUS43 KABR 210500
TAFATY
TAF
KATY 210523Z 2106/2206 13007KT P6SM OVC050
     FM211000 VRB03KT 4SM BR OVC015
     FM211700 VRB05KT P6SM BKN200=

USA.gov is the U.S. government's official web portal to all federal, state and local government web resources and services.